Terminal Aerodrome Forecast
Issued by NWS

Home | Current Version | Previous Version | Text Only | Print | Product List | Glossary On
Versions: 1 2 3 4 5 6 7 8 9 10 11 12 13 14 15 16 17 18 19 20
000
FTUS45 KVEF 201700
TAFHND
TAF
KHND 201732Z 2018/2118 15005KT P6SM FEW090 SCT140 BKN200
     FM202100 18010G20KT P6SM FEW090 SCT120 SCT200
     FM210300 17010KT P6SM BKN120
     FM210800 17007KT P6SM SCT120=

USA.gov is the U.S. government's official web portal to all federal, state and local government web resources and services.